Home > Time Zones > World Clock > Weather > U.S.A. > Gary > Past weeks

Flag for U.S.A. Weather past 2 weeks in Gary, Indiana, U.S.A.

Now
85 °F

Sunny.


Feels Like: 88 °F
Forecast: 65 / 82 °F
Wind: 7 mph from Southwest

Location: Lansing Municipal Airport

Current Time: Aug 31, 2015 at 5:50:59 PM

Latest Report: Aug 31, 2015 at 4:15 PM


Visibility: 10 mi

Pressure: 30.02 "Hg

Humidity: 55%

Dew point: 67 °F

Location of GaryLocation

Historic Weather in Gary — Graph

°F

Gary temperature yesterday

Maximum temperature yesterday: 78 °F (at 3:55 PM)
Minimum temperature yesterday: 63 °F (at 11:15 PM)
Average temperature yesterday: 69 °F

Past Weeks' High & Low Weather Summary

 TemperatureHumidityPressure
High87 °F (Aug 16, 4:15 PM)100% (Aug 30, 11:15 PM)30.23 "Hg (Aug 30, 11:15 PM)
Low53 °F (Aug 21, 6:15 AM)38% (Aug 20, 6:15 PM)29.68 "Hg (Aug 19, 4:35 AM)
Average68 °F75%30.01 "Hg
* Reported Aug 16 4:15 PM — Aug 31 4:15 PM, Gary, Weather by CustomWeather, © 2015

Note: Actual official high and low records may vary slightly from our data, if they occured in-between our weather recording intervals... More about our weather records

Advertising

Gary weather history for previous 24 hours

 ConditionsComfort  
Time TempWeatherWind HumidityBarometerVisibility
4:15 PM
Mon, Aug 31
85 °FSunny.7 mph55%30.02 "Hg10 mi
3:55 PM85 °FScattered clouds.7 mph54%30.03 "Hg10 mi
3:35 PM85 °FScattered clouds.6 mph58%30.03 "Hg10 mi
3:15 PM85 °FScattered clouds.6 mph59%30.04 "Hg10 mi
2:55 PM84 °FPartly sunny.6 mph61%30.04 "Hg10 mi
2:35 PM84 °FBroken clouds.6 mph60%30.05 "Hg10 mi
2:15 PM84 °FScattered clouds.7 mph61%30.05 "Hg10 mi
1:55 PM84 °FScattered clouds.5 mph62%30.06 "Hg10 mi
1:35 PM83 °FSunny.5 mph62%30.06 "Hg10 mi
1:15 PM83 °FSunny.5 mph64%30.07 "Hg10 mi
12:55 PM82 °FSunny.7 mph64%30.08 "Hg10 mi
12:35 PM81 °FSunny.3 mph65%30.08 "Hg10 mi
12:15 PM81 °FSunny.3 mph69%30.08 "Hg10 mi
11:55 AM80 °FSunny.No wind71%30.09 "Hg10 mi
11:35 AM79 °FSunny.No wind75%30.09 "Hg7 mi
11:15 AM78 °FSunny.No wind76%30.10 "Hg7 mi
10:55 AM77 °FSunny.No wind76%30.10 "Hg7 mi
10:35 AM76 °FSunny.3 mph80%30.10 "Hg7 mi
10:15 AM73 °FSunny.No wind86%30.10 "Hg7 mi
9:55 AM72 °FFog.No wind89%30.10 "Hg5 mi
9:35 AM71 °FFog.No wind97%30.09 "Hg5 mi
9:15 AM69 °FFog.3 mph100%30.09 "Hg4 mi
8:55 AM68 °FFog.No wind100%30.09 "Hg1 mi
8:15 AM66 °FFog.No wind100%30.08 "Hg0 mi
7:55 AM65 °FLow clouds.No wind100%30.08 "Hg0 mi
7:35 AM64 °FFog.No wind100%30.08 "Hg0 mi
7:15 AM64 °FFog.No wind100%30.08 "Hg0 mi
6:55 AM64 °FFog.No wind100%30.08 "Hg0 mi
6:35 AM63 °FFog.No wind100%30.07 "Hg0 mi
6:15 AM63 °FFog.No wind100%30.06 "Hg0 mi
5:55 AM62 °FFog.No wind100%30.05 "Hg4 mi
5:35 AM63 °FFog.No wind100%30.05 "Hg5 mi
5:15 AM64 °FFog.No wind100%30.04 "Hg4 mi
4:55 AM63 °FFog.No wind100%30.04 "Hg4 mi
4:35 AM62 °FFog.No wind100%30.04 "Hg4 mi
4:15 AM61 °FFog.No wind100%30.04 "Hg4 mi
3:55 AM59 °FFog.No wind100%30.04 "Hg3 mi
3:35 AM60 °FFog.No wind100%30.04 "Hg1 mi
3:15 AM60 °FFog.No wind100%30.04 "Hg0 mi
2:55 AM60 °FFog.No wind100%30.04 "Hg0 mi
2:35 AM62 °FFog.No wind100%30.04 "Hg1 mi
2:15 AM60 °FFog.No wind100%30.04 "Hg0 mi
1:55 AM60 °FFog.No wind100%30.04 "Hg0 mi
1:35 AM61 °FFog.No wind100%30.04 "Hg1 mi
1:15 AM61 °FFog.No wind100%30.04 "Hg1 mi
12:55 AM61 °FFog.No wind100%30.04 "Hg0 mi
12:35 AM62 °FFog.No wind100%30.04 "Hg1 mi
12:15 AM64 °FFog.No wind100%30.05 "Hg1 mi
11:55 PM
Sun, Aug 30
64 °FFog.No wind99%30.04 "Hg2 mi
11:35 PM64 °FFog.No wind99%30.04 "Hg2 mi
11:15 PM63 °FFog.No wind100%30.04 "Hg0 mi
10:35 PM63 °FFog.No wind98%30.04 "Hg1 mi
10:15 PM64 °FFog.No wind98%30.04 "Hg2 mi
9:55 PM65 °FFog.No wind98%30.04 "Hg4 mi
9:35 PM66 °FFog.No wind95%30.05 "Hg5 mi
9:15 PM67 °FFog.No wind95%30.05 "Hg5 mi
8:55 PM67 °FFog.No wind93%30.05 "Hg5 mi
8:35 PM67 °FPassing clouds.No wind93%30.04 "Hg7 mi
8:15 PM68 °FPassing clouds.3 mph91%30.04 "Hg7 mi
7:55 PM69 °FClear.3 mph90%30.03 "Hg7 mi
7:35 PM69 °FClear.No wind87%30.02 "Hg7 mi
7:15 PM70 °FSunny.No wind83%30.02 "Hg7 mi
6:55 PM71 °FScattered clouds.No wind82%30.02 "Hg10 mi
6:35 PM72 °FPartly sunny.5 mph78%30.02 "Hg10 mi
6:15 PM73 °FScattered clouds.3 mph77%30.02 "Hg10 mi
5:55 PM74 °FPartly sunny.6 mph74%30.02 "Hg10 mi
5:35 PM74 °FScattered clouds.5 mph75%30.02 "Hg7 mi
5:15 PM75 °FPartly sunny.6 mph73%30.02 "Hg10 mi
Weather by CustomWeather, © 2015

See weather overviewHow to use our weather pages